Regional Weather Roundup
Issued by NWS Little Rock, AR

Home | Current Version | Previous Version | Text Only | Print | Product List | Glossary Off
Versions: 1 2 3 4 5 6 7 8 9 10 11 12 13 14 15 16 17 18 19 20 21 22 23 24 25 26 27

000
ASUS44 KLZK 022205
RWRLZK

WEATHER ROUNDUP FOR ARKANSAS
NATIONAL WEATHER SERVICE LITTLE ROCK AR
500 PM CDT MON MAY 02 2016

NOTE: "FAIR" INDICATES FEW OR NO CLOUDS BELOW 12,000 FEET WITH NO
SIGNIFICANT WEATHER AND/OR OBSTRUCTIONS TO VISIBILITY.

ARZ001-003-010-029-022300-
NORTHWEST ARKANSAS

CITY           SKY/WX    TMP DP  RH WIND       PRES   REMARKS
FAYETTEVILLE   CLOUDY    54  47  77 NW9       30.06F
FORT SMITH     CLOUDY    62  47  57 N13       30.05F
HARRISON       LGT RAIN  53  48  83 NW7       30.05S
BENTONVILLE    CLOUDY    54  43  66 NW6       30.08S
ROGERS         CLOUDY    54  46  74 NW14      30.07F
SILOAM SPGS    CLOUDY    54  39  58 N9        30.09S
HIGHFILL       CLOUDY    54  47  77 NW12      30.07F
SPRINGDALE     CLOUDY    55  46  71 NW12      30.08F
$$

ARZ004-005-016-022300-
NORTH CENTRAL ARKANSAS

CITY           SKY/WX    TMP DP  RH WIND       PRES   REMARKS
BATESVILLE     CLOUDY    64  50  59 W7        29.99F
FLIPPIN        CLOUDY   N/A N/A N/A NW8       30.01S
MTN HOME       CLOUDY    60  47  61 VRB6      30.01F
$$

ARZ040-041-022300-
WEST CENTRAL ARKANSAS

CITY           SKY/WX    TMP DP  RH WIND       PRES   REMARKS
MENA           CLOUDY    63  52  67 NW8       30.05S
MOUNT IDA      CLOUDY    66  52  60 CALM      29.99F
$$

ARZ009-017-025-026-028-022300-
NORTHEAST ARKANSAS

CITY           SKY/WX    TMP DP  RH WIND       PRES   REMARKS
JONESBORO      MOSUNNY   67  53  61 NW7       29.96F
NEWPORT        MOSUNNY   69  52  54 NW10      29.97F
WALNUT RIDGE   MOSUNNY   68  48  49 W10       29.97F
BLYTHEVILLE    CLOUDY    68  57  68 NW10      29.96F
NW BLYTHEVILLE PTSUNNY   68  55  64 NW6       29.97F
$$

ARZ022-023-033-042-044-022300-
CENTRAL ARKANSAS

CITY           SKY/WX    TMP DP  RH WIND       PRES   REMARKS
LITTLE ROCK    CLOUDY    70  53  54 NW9       29.99F
N LITTLE ROCK    N/A     66  55  68 N5        29.98F
SEARCY         PTSUNNY   69  54  58 NW7       29.98F
HOT SPRINGS    CLOUDY    67  53  61 NW6       30.01S
RUSSELLVILLE   CLOUDY    64  51  62 NW7       30.01F
$$

ARZ036-022300-
EAST ARKANSAS

CITY           SKY/WX    TMP DP  RH WIND       PRES   REMARKS
WEST MEMPHIS   CLOUDY    67  57  70 N8        29.94F
$$

ARZ050-053-066-070-073-022300-
SOUTHWEST ARKANSAS

CITY           SKY/WX    TMP DP  RH WIND       PRES   REMARKS
ARKADELPHIA    MOCLDY    68  61  78 NW5       30.01F
CAMDEN         CLOUDY    68  55  64 W6        30.00F
TEXARKANA      CLOUDY    65  56  72 NW8       30.03S
EL DORADO      CLOUDY    64  59  83 NW6       30.00F
DE QUEEN       CLOUDY    64  54  69 N5        30.02S
$$

ARZ056-057-069-022300-
SOUTHEAST ARKANSAS

CITY           SKY/WX    TMP DP  RH WIND       PRES   REMARKS
PINE BLUFF     MOSUNNY   67  56  67 NW10      29.98F
STUTTGART      CLOUDY    66  55  68 NW10      29.97F
MONTICELLO     CLOUDY    64  59  83 W6        29.98F

$$






USA.gov is the U.S. government's official web portal to all federal, state and local government web resources and services.